Time,TemperatureF,DewpointF,PressureIn,WindDirection,WindDirectionDegrees,WindSpeedMPH,WindSpeedGustMPH,Humidity,HourlyPrecipIn,Conditions,Clouds,dailyrainin,SoftwareType,DateUTC
2013-09-25 00:02:00,49.3,36.0,29.89,NW,315,1.2,0.0,60,0.00,CLR,,0.00,WeatherDisplay:10.37,2013-09-25 07:02:00,
2013-09-25 00:07:00,49.5,34.4,29.89,NE,45,1.2,0.0,56,0.00,CLR,,0.00,WeatherDisplay:10.37,2013-09-25 07:07:00,
2013-09-25 00:12:00,49.6,34.6,29.88,South,180,1.2,1.2,56,0.00,CLR,,0.00,WeatherDisplay:10.37,2013-09-25 07:12:00,
2013-09-25 00:17:00,49.8,35.2,29.89,SW,225,1.2,0.0,57,0.00,CLR,,0.00,WeatherDisplay:10.37,2013-09-25 07:17:00,
2013-09-25 00:22:00,49.8,34.7,29.89,NW,315,3.5,3.5,56,0.00,CLR,,0.00,WeatherDisplay:10.37,2013-09-25 07:22:00,
2013-09-25 00:27:00,50.0,34.5,29.90,NE,45,2.3,2.3,55,0.00,CLR,,0.00,WeatherDisplay:10.37,2013-09-25 07:27:00,
2013-09-25 00:32:00,50.2,34.6,29.89,East,90,2.3,2.3,55,0.00,CLR,,0.00,WeatherDisplay:10.37,2013-09-25 07:32:00,
2013-09-25 00:37:00,50.4,34.8,29.90,SW,225,0.0,0.0,55,0.00,CLR,,0.00,WeatherDisplay:10.37,2013-09-25 07:37:00,
2013-09-25 00:42:00,50.2,34.6,29.89,South,180,2.3,2.3,55,0.00,CLR,,0.00,WeatherDisplay:10.37,2013-09-25 07:42:00,
2013-09-25 00:47:00,49.8,33.8,29.89,SW,225,1.2,0.0,54,0.00,CLR,,0.00,WeatherDisplay:10.37,2013-09-25 07:47:00,
2013-09-25 00:52:00,49.6,33.7,29.89,SW,225,1.2,0.0,54,0.00,CLR,,0.00,WeatherDisplay:10.37,2013-09-25 07:52:00,
2013-09-25 00:57:00,49.3,33.3,29.89,SW,225,0.0,0.0,54,0.00,CLR,,0.00,WeatherDisplay:10.37,2013-09-25 07:57:00,
2013-09-25 01:02:00,49.1,33.2,29.89,SW,225,1.2,0.0,54,0.00,CLR,,0.00,WeatherDisplay:10.37,2013-09-25 08:02:00,
2013-09-25 01:07:00,48.9,33.0,29.89,West,270,0.0,0.0,54,0.00,CLR,,0.00,WeatherDisplay:10.37,2013-09-25 08:07:00,
2013-09-25 01:12:00,48.9,33.0,29.89,SW,225,0.0,0.0,54,0.00,CLR,,0.00,WeatherDisplay:10.37,2013-09-25 08:12:00,
2013-09-25 01:17:00,48.7,32.8,29.89,NW,315,1.2,0.0,54,0.00,CLR,,0.00,WeatherDisplay:10.37,2013-09-25 08:17:00,
2013-09-25 01:22:00,48.9,33.0,29.90,West,270,1.2,0.0,54,0.00,CLR,,0.00,WeatherDisplay:10.37,2013-09-25 08:22:00,
2013-09-25 01:27:00,49.1,33.6,29.89,South,180,3.5,3.5,55,0.00,CLR,,0.00,WeatherDisplay:10.37,2013-09-25 08:27:00,
2013-09-25 01:32:00,49.1,33.6,29.90,North,0,1.2,0.0,55,0.00,CLR,,0.00,WeatherDisplay:10.37,2013-09-25 08:32:00,
2013-09-25 01:37:00,49.3,33.8,29.90,West,270,2.3,2.3,55,0.00,CLR,,0.00,WeatherDisplay:10.37,2013-09-25 08:37:00,
2013-09-25 01:43:00,49.5,34.4,29.90,NE,45,1.2,0.0,56,0.00,CLR,,0.00,WeatherDisplay:10.37,2013-09-25 08:43:00,
2013-09-25 01:48:00,49.6,34.1,29.90,North,0,1.2,1.2,55,0.00,CLR,,0.00,WeatherDisplay:10.37,2013-09-25 08:48:00,
2013-09-25 01:53:00,49.6,34.1,29.90,North,0,1.2,0.0,55,0.00,CLR,,0.00,WeatherDisplay:10.37,2013-09-25 08:53:00,
2013-09-25 01:58:00,50.0,34.9,29.89,SE,135,2.3,2.3,56,0.00,CLR,,0.00,WeatherDisplay:10.37,2013-09-25 08:58:00,
2013-09-25 02:03:00,50.0,34.9,29.90,NW,315,1.2,0.0,56,0.00,CLR,,0.00,WeatherDisplay:10.37,2013-09-25 09:03:00,
2013-09-25 02:08:00,50.0,34.9,29.90,West,270,2.3,2.3,56,0.00,CLR,,0.00,WeatherDisplay:10.37,2013-09-25 09:08:00,
2013-09-25 02:13:00,50.0,36.7,29.90,West,270,0.0,0.0,60,0.00,CLR,,0.00,WeatherDisplay:10.37,2013-09-25 09:13:00,
2013-09-25 02:18:00,50.0,39.5,29.90,West,270,0.0,0.0,67,0.00,CLR,,0.00,WeatherDisplay:10.37,2013-09-25 09:18:00,
2013-09-25 02:23:00,50.0,38.3,29.89,South,180,1.2,0.0,64,0.00,CLR,,0.00,WeatherDisplay:10.37,2013-09-25 09:23:00,
2013-09-25 02:28:00,49.8,36.9,29.89,South,180,1.2,0.0,61,0.00,CLR,,0.00,WeatherDisplay:10.37,2013-09-25 09:28:00,
2013-09-25 02:33:00,49.5,34.4,29.89,NW,315,1.2,1.2,56,0.00,CLR,,0.00,WeatherDisplay:10.37,2013-09-25 09:33:00,
2013-09-25 02:38:00,49.5,34.4,29.89,South,180,3.5,3.5,56,0.00,CLR,,0.00,WeatherDisplay:10.37,2013-09-25 09:38:00,
2013-09-25 02:43:00,49.1,34.1,29.89,NW,315,1.2,0.0,56,0.00,CLR,,0.00,WeatherDisplay:10.37,2013-09-25 09:43:00,
2013-09-25 02:48:00,48.7,33.3,29.89,NW,315,1.2,0.0,55,0.00,CLR,,0.00,WeatherDisplay:10.37,2013-09-25 09:48:00,
2013-09-25 02:53:00,48.4,32.9,29.89,West,270,2.3,0.0,55,0.00,CLR,,0.00,WeatherDisplay:10.37,2013-09-25 09:53:00,
2013-09-25 02:58:00,48.2,32.8,29.89,NW,315,1.2,0.0,55,0.00,CLR,,0.00,WeatherDisplay:10.37,2013-09-25 09:58:00,
2013-09-25 03:03:00,48.0,32.6,29.88,North,0,1.2,0.0,55,0.00,CLR,,0.00,WeatherDisplay:10.37,2013-09-25 10:03:00,
2013-09-25 03:08:00,47.8,32.4,29.89,North,0,0.0,0.0,55,0.00,CLR,,0.00,WeatherDisplay:10.37,2013-09-25 10:08:00,
2013-09-25 03:13:00,47.7,32.3,29.89,SW,225,1.2,0.0,55,0.00,CLR,,0.00,WeatherDisplay:10.37,2013-09-25 10:13:00,
2013-09-25 03:18:00,47.1,31.8,29.89,NW,315,0.0,0.0,55,0.00,CLR,,0.00,WeatherDisplay:10.37,2013-09-25 10:18:00,
2013-09-25 03:23:00,46.9,31.6,29.88,South,180,0.0,0.0,55,0.00,CLR,,0.00,WeatherDisplay:10.37,2013-09-25 10:23:00,
2013-09-25 03:28:00,46.8,31.0,29.88,South,180,0.0,0.0,54,0.00,CLR,,0.00,WeatherDisplay:10.37,2013-09-25 10:28:00,
2013-09-25 03:33:00,46.6,30.8,29.88,SW,225,0.0,0.0,54,0.00,CLR,,0.00,WeatherDisplay:10.37,2013-09-25 10:33:00,
2013-09-25 03:38:00,46.4,30.6,29.88,South,180,1.2,0.0,54,0.00,CLR,,0.00,WeatherDisplay:10.37,2013-09-25 10:38:00,
2013-09-25 03:43:00,46.0,30.3,29.89,West,270,1.2,0.0,54,0.00,CLR,,0.00,WeatherDisplay:10.37,2013-09-25 10:43:00,
2013-09-25 03:48:00,45.9,30.1,29.89,NW,315,0.0,0.0,54,0.00,CLR,,0.00,WeatherDisplay:10.37,2013-09-25 10:48:00,
2013-09-25 03:53:00,45.9,30.1,29.89,SW,225,0.0,0.0,54,0.00,CLR,,0.00,WeatherDisplay:10.37,2013-09-25 10:53:00,
2013-09-25 03:58:00,45.7,30.0,29.89,West,270,1.2,0.0,54,0.00,CLR,,0.00,WeatherDisplay:10.37,2013-09-25 10:58:00,
2013-09-25 04:03:00,45.9,30.1,29.89,South,180,1.2,0.0,54,0.00,CLR,,0.00,WeatherDisplay:10.37,2013-09-25 11:03:00,
2013-09-25 04:08:00,45.7,30.0,29.89,West,270,1.2,0.0,54,0.00,CLR,,0.00,WeatherDisplay:10.37,2013-09-25 11:08:00,
2013-09-25 04:13:00,45.5,29.8,29.89,North,0,1.2,1.2,54,0.00,CLR,,0.00,WeatherDisplay:10.37,2013-09-25 11:13:00,
2013-09-25 04:18:00,45.9,30.6,29.90,NW,315,0.0,0.0,55,0.00,CLR,,0.00,WeatherDisplay:10.37,2013-09-25 11:18:00,
2013-09-25 04:23:00,45.9,30.6,29.90,NE,45,0.0,0.0,55,0.00,CLR,,0.00,WeatherDisplay:10.37,2013-09-25 11:23:00,
2013-09-25 04:28:00,46.0,30.8,29.89,SW,225,3.5,3.5,55,0.00,CLR,,0.00,WeatherDisplay:10.37,2013-09-25 11:28:00,
2013-09-25 04:33:00,46.0,30.8,29.89,South,180,3.5,0.0,55,0.00,CLR,,0.00,WeatherDisplay:10.37,2013-09-25 11:33:00,
2013-09-25 04:38:00,46.4,31.5,29.89,SSE,158,2.3,0.0,56,0.00,CLR,,0.00,WeatherDisplay:10.37,2013-09-25 11:38:00,
2013-09-25 04:43:00,46.4,31.5,29.89,East,90,3.5,3.5,56,0.00,CLR,,0.00,WeatherDisplay:10.37,2013-09-25 11:43:00,
2013-09-25 04:49:00,46.4,32.8,29.89,NE,45,3.5,3.5,59,0.00,CLR,,0.00,WeatherDisplay:10.37,2013-09-25 11:49:00,
2013-09-25 04:54:00,46.6,33.0,29.90,North,0,3.5,3.5,59,0.00,CLR,,0.00,WeatherDisplay:10.37,2013-09-25 11:54:00,
2013-09-25 04:59:00,46.9,33.8,29.89,NE,45,3.5,3.5,60,0.00,CLR,,0.00,WeatherDisplay:10.37,2013-09-25 11:59:00,
2013-09-25 05:04:00,47.1,33.9,29.89,NE,45,1.2,1.2,60,0.00,CLR,,0.00,WeatherDisplay:10.37,2013-09-25 12:04:00,
2013-09-25 05:09:00,47.3,32.8,29.89,NE,45,1.2,0.0,57,0.00,CLR,,0.00,WeatherDisplay:10.37,2013-09-25 12:09:00,
2013-09-25 05:14:00,47.5,33.0,29.89,North,0,1.2,0.0,57,0.00,CLR,,0.00,WeatherDisplay:10.37,2013-09-25 12:14:00,
2013-09-25 05:19:00,47.7,35.3,29.89,NE,45,1.6,0.0,62,0.00,CLR,,0.00,WeatherDisplay:10.37,2013-09-25 12:19:00,
2013-09-25 05:24:00,47.3,35.3,29.89,West,270,1.2,0.0,63,0.00,CLR,,0.00,WeatherDisplay:10.37,2013-09-25 12:24:00,
2013-09-25 05:27:00,47.1,35.6,29.89,West,270,3.5,3.5,64,0.00,CLR,,0.00,WeatherDisplay:10.37,2013-09-25 12:27:00,
2013-09-25 05:32:00,47.1,35.6,29.89,SW,225,1.2,0.0,64,0.00,CLR,,0.00,WeatherDisplay:10.37,2013-09-25 12:32:00,
2013-09-25 05:37:00,47.1,35.6,29.89,SW,225,1.2,0.0,64,0.00,CLR,,0.00,WeatherDisplay:10.37,2013-09-25 12:37:00,
2013-09-25 05:42:00,47.3,35.7,29.89,East,90,1.2,0.0,64,0.00,CLR,,0.00,WeatherDisplay:10.37,2013-09-25 12:42:00,
2013-09-25 05:47:00,47.3,36.5,29.89,East,90,3.5,0.0,66,0.00,CLR,,0.00,WeatherDisplay:10.37,2013-09-25 12:47:00,
2013-09-25 05:52:00,47.7,36.9,29.89,East,90,1.2,0.0,66,0.00,CLR,,0.00,WeatherDisplay:10.37,2013-09-25 12:52:00,
2013-09-25 05:57:00,47.7,36.5,29.90,NW,315,1.2,0.0,65,0.00,CLR,,0.00,WeatherDisplay:10.37,2013-09-25 12:57:00,
2013-09-25 06:02:00,47.8,35.8,29.90,SE,135,1.2,0.0,63,0.00,CLR,,0.00,WeatherDisplay:10.37,2013-09-25 13:02:00,
2013-09-25 06:09:00,48.0,36.0,29.90,South,180,1.6,1.6,63,0.00,CLR,,0.00,WeatherDisplay:10.37,2013-09-25 13:09:00,
2013-09-25 06:14:00,48.0,34.4,29.90,East,90,2.3,2.3,59,0.00,CLR,,0.00,WeatherDisplay:10.37,2013-09-25 13:14:00,
2013-09-25 06:23:00,48.0,34.4,29.90,North,0,1.2,0.0,59,0.00,CLR,,0.00,WeatherDisplay:10.37,2013-09-25 13:23:00,
2013-09-25 06:28:00,47.8,33.8,29.90,NE,45,1.2,1.2,58,0.00,CLR,,0.00,WeatherDisplay:10.37,2013-09-25 13:28:00,
2013-09-25 06:33:00,47.8,33.8,29.90,NE,45,1.2,0.0,58,0.00,CLR,,0.00,WeatherDisplay:10.37,2013-09-25 13:33:00,
2013-09-25 06:38:00,47.7,33.6,29.90,SW,225,3.5,3.5,58,0.00,CLR,,0.00,WeatherDisplay:10.37,2013-09-25 13:38:00,
2013-09-25 06:45:00,47.7,33.6,29.90,SE,135,5.8,5.8,58,0.00,CLR,,0.00,WeatherDisplay:10.37,2013-09-25 13:45:00,
2013-09-25 06:50:00,47.8,33.8,29.90,South,180,3.5,3.5,58,0.00,CLR,,0.00,WeatherDisplay:10.37,2013-09-25 13:50:00,
2013-09-25 06:55:00,47.8,33.8,29.91,West,270,1.2,0.0,58,0.00,CLR,,0.00,WeatherDisplay:10.37,2013-09-25 13:55:00,
2013-09-25 07:00:00,47.8,34.2,29.91,South,180,2.3,2.3,59,0.00,CLR,,0.00,WeatherDisplay:10.37,2013-09-25 14:00:00,
2013-09-25 07:05:00,47.8,34.2,29.91,South,180,2.3,2.3,59,0.00,CLR,,0.00,WeatherDisplay:10.37,2013-09-25 14:05:00,
2013-09-25 07:10:00,48.0,34.8,29.91,SE,135,1.2,0.0,60,0.00,CLR,,0.00,WeatherDisplay:10.37,2013-09-25 14:10:00,
2013-09-25 07:15:00,48.0,34.8,29.91,East,90,1.2,0.0,60,0.00,CLR,,0.00,WeatherDisplay:10.37,2013-09-25 14:15:00,
2013-09-25 07:20:00,47.8,34.6,29.91,South,180,3.5,3.5,60,0.00,CLR,,0.00,WeatherDisplay:10.37,2013-09-25 14:20:00,
2013-09-25 07:25:00,48.0,38.0,29.91,South,180,5.8,5.8,68,0.00,CLR,,0.00,WeatherDisplay:10.37,2013-09-25 14:25:00,
2013-09-25 07:30:00,48.4,43.8,29.91,South,180,1.2,0.0,84,0.00,CLR,,0.00,WeatherDisplay:10.37,2013-09-25 14:30:00,
2013-09-25 07:35:00,48.4,44.1,29.91,SE,135,0.0,0.0,85,0.00,CLR,,0.00,WeatherDisplay:10.37,2013-09-25 14:35:00,
2013-09-25 08:42:00,48.9,40.6,29.93,SW,225,2.3,2.3,73,0.00,CLR,,0.00,WeatherDisplay:10.37,2013-09-25 15:42:00,
2013-09-25 08:47:00,49.1,41.2,29.93,SW,225,1.2,0.0,74,0.00,CLR,,0.00,WeatherDisplay:10.37,2013-09-25 15:47:00,
2013-09-25 08:54:00,49.3,41.0,29.93,North,0,0.0,0.0,73,0.00,CLR,,0.00,WeatherDisplay:10.37,2013-09-25 15:54:00,
2013-09-25 08:59:00,49.5,41.5,29.93,SE,135,0.0,0.0,74,0.00,CLR,,0.00,WeatherDisplay:10.37,2013-09-25 15:59:00,
2013-09-25 09:04:00,49.6,42.0,29.93,South,180,0.0,0.0,75,0.00,CLR,,0.00,WeatherDisplay:10.37,2013-09-25 16:04:00,
2013-09-25 09:09:00,50.0,41.7,29.94,SW,225,0.0,0.0,73,0.00,CLR,,0.00,WeatherDisplay:10.37,2013-09-25 16:09:00,
2013-09-25 09:14:00,50.0,42.0,29.93,SW,225,1.2,0.0,74,0.00,CLR,,0.00,WeatherDisplay:10.37,2013-09-25 16:14:00,
2013-09-25 09:19:00,50.2,42.2,29.93,SW,225,1.2,0.0,74,0.00,CLR,,0.00,WeatherDisplay:10.37,2013-09-25 16:19:00,
2013-09-25 09:24:00,50.5,42.9,29.93,South,180,0.0,0.0,75,0.00,CLR,,0.00,WeatherDisplay:10.37,2013-09-25 16:24:00,
2013-09-25 09:29:00,50.7,43.1,29.93,NE,45,1.2,0.0,75,0.00,CLR,,0.00,WeatherDisplay:10.37,2013-09-25 16:29:00,
2013-09-25 09:34:00,50.9,43.6,29.93,West,270,2.3,2.3,76,0.00,CLR,,0.00,WeatherDisplay:10.37,2013-09-25 16:34:00,
2013-09-25 09:39:00,50.9,43.3,29.93,West,270,1.2,0.0,75,0.00,CLR,,0.00,WeatherDisplay:10.37,2013-09-25 16:39:00,
2013-09-25 09:44:00,51.1,43.4,29.94,SE,135,1.2,0.0,75,0.00,CLR,,0.00,WeatherDisplay:10.37,2013-09-25 16:44:00,
2013-09-25 09:49:00,51.6,44.0,29.93,SE,135,2.3,2.3,75,0.00,CLR,,0.00,WeatherDisplay:10.37,2013-09-25 16:49:00,
2013-09-25 09:54:00,52.3,44.6,29.93,SE,135,8.1,8.1,75,0.00,CLR,,0.00,WeatherDisplay:10.37,2013-09-25 16:54:00,
2013-09-25 09:59:00,52.7,44.3,29.93,South,180,3.5,3.5,73,0.00,CLR,,0.00,WeatherDisplay:10.37,2013-09-25 16:59:00,
2013-09-25 10:05:00,52.5,44.5,29.93,South,180,5.8,5.8,74,0.00,CLR,,0.00,WeatherDisplay:10.37,2013-09-25 17:05:00,
2013-09-25 10:10:00,52.7,42.4,29.93,SW,225,5.8,5.8,68,0.00,CLR,,0.00,WeatherDisplay:10.37,2013-09-25 17:10:00,
2013-09-25 10:15:00,52.9,37.1,29.94,SW,225,8.1,8.1,55,0.00,CLR,,0.00,WeatherDisplay:10.37,2013-09-25 17:15:00,
2013-09-25 10:20:00,53.2,39.3,29.93,SW,225,8.1,8.1,59,0.00,CLR,,0.00,WeatherDisplay:10.37,2013-09-25 17:20:00,
2013-09-25 10:25:00,54.3,37.5,29.93,South,180,5.8,5.8,53,0.00,CLR,,0.00,WeatherDisplay:10.37,2013-09-25 17:25:00,
2013-09-25 10:30:00,54.9,39.0,29.93,SW,225,6.9,6.9,55,0.00,CLR,,0.00,WeatherDisplay:10.37,2013-09-25 17:30:00,
2013-09-25 10:35:00,54.7,38.8,29.94,SW,225,5.8,5.8,55,0.00,CLR,,0.00,WeatherDisplay:10.37,2013-09-25 17:35:00,
2013-09-25 10:40:00,55.2,38.9,29.93,SW,225,8.1,8.1,54,0.00,CLR,,0.00,WeatherDisplay:10.37,2013-09-25 17:40:00,
2013-09-25 10:45:00,56.3,40.3,29.93,SW,225,6.9,6.9,55,0.00,CLR,,0.00,WeatherDisplay:10.37,2013-09-25 17:45:00,
2013-09-25 10:50:00,57.6,40.5,29.94,South,180,5.8,5.8,53,0.00,CLR,,0.00,WeatherDisplay:10.37,2013-09-25 17:50:00,
2013-09-25 10:55:00,57.7,39.2,29.94,South,180,3.5,3.5,50,0.00,CLR,,0.00,WeatherDisplay:10.37,2013-09-25 17:55:00,
2013-09-25 11:00:00,58.8,43.6,29.94,SW,225,1.2,0.0,57,0.00,CLR,,0.00,WeatherDisplay:10.37,2013-09-25 18:00:00,
2013-09-25 11:05:00,58.3,43.6,29.94,SW,225,3.5,3.5,58,0.00,CLR,,0.00,WeatherDisplay:10.37,2013-09-25 18:05:00,
2013-09-25 11:10:00,57.4,43.2,29.94,SW,225,3.5,3.5,59,0.00,CLR,,0.00,WeatherDisplay:10.37,2013-09-25 18:10:00,
2013-09-25 11:15:00,56.8,44.0,29.95,West,270,1.2,0.0,62,0.00,CLR,,0.00,WeatherDisplay:10.37,2013-09-25 18:15:00,
2013-09-25 11:20:00,56.5,43.6,29.94,West,270,2.3,0.0,62,0.00,CLR,,0.00,WeatherDisplay:10.37,2013-09-25 18:20:00,
2013-09-25 11:25:00,56.3,44.3,29.95,West,270,3.5,0.0,64,0.00,CLR,,0.00,WeatherDisplay:10.37,2013-09-25 18:25:00,
2013-09-25 11:30:00,56.5,45.3,29.95,NW,315,1.2,0.0,66,0.00,CLR,,0.00,WeatherDisplay:10.37,2013-09-25 18:30:00,
2013-09-25 11:35:00,56.8,45.6,29.95,North,0,1.2,1.2,66,0.00,CLR,,0.00,WeatherDisplay:10.37,2013-09-25 18:35:00,
2013-09-25 11:40:00,56.8,45.6,29.95,SW,225,1.2,0.0,66,0.00,CLR,,0.00,WeatherDisplay:10.37,2013-09-25 18:40:00,
2013-09-25 11:45:00,57.2,45.5,29.95,NW,315,2.3,2.3,65,0.00,CLR,,0.00,WeatherDisplay:10.37,2013-09-25 18:45:00,
2013-09-25 11:50:00,58.6,46.5,29.95,East,90,1.2,1.2,64,0.00,CLR,,0.00,WeatherDisplay:10.37,2013-09-25 18:50:00,
2013-09-25 11:55:00,61.0,45.6,29.95,NE,45,4.6,4.6,57,0.00,CLR,,0.00,WeatherDisplay:10.37,2013-09-25 18:55:00,
2013-09-25 12:00:00,64.8,39.9,29.95,South,180,1.2,1.6,40,0.00,CLR,,0.00,WeatherDisplay:10.37,2013-09-25 19:00:00,
2013-09-25 12:05:00,65.5,38.5,29.95,SW,225,2.3,2.3,37,0.00,CLR,,0.00,WeatherDisplay:10.37,2013-09-25 19:05:00,
2013-09-25 12:10:00,64.4,40.8,29.95,West,270,3.5,3.5,42,0.00,CLR,,0.00,WeatherDisplay:10.37,2013-09-25 19:10:00,
2013-09-25 12:15:00,63.3,43.3,29.95,West,270,2.3,0.0,48,0.00,CLR,,0.00,WeatherDisplay:10.37,2013-09-25 19:15:00,
2013-09-25 12:20:00,63.5,41.8,29.95,SW,225,3.5,3.5,45,0.00,CLR,,0.00,WeatherDisplay:10.37,2013-09-25 19:20:00,
2013-09-25 12:25:00,63.5,42.9,29.95,West,270,3.5,3.5,47,0.00,CLR,,0.00,WeatherDisplay:10.37,2013-09-25 19:25:00,
2013-09-25 12:30:00,64.4,43.2,29.95,NE,45,5.8,0.0,46,0.00,CLR,,0.00,WeatherDisplay:10.37,2013-09-25 19:30:00,
2013-09-25 12:35:00,66.6,41.5,29.95,NW,315,4.6,4.6,40,0.00,CLR,,0.00,WeatherDisplay:10.37,2013-09-25 19:35:00,
2013-09-25 12:40:00,65.1,40.2,29.95,West,270,5.8,5.8,40,0.00,CLR,,0.00,WeatherDisplay:10.37,2013-09-25 19:40:00,
2013-09-25 12:45:00,65.5,39.9,29.95,West,270,5.8,5.8,39,0.00,CLR,,0.00,WeatherDisplay:10.37,2013-09-25 19:45:00,
2013-09-25 12:50:00,65.5,41.1,29.96,NW,315,3.5,3.8,41,0.00,CLR,,0.00,WeatherDisplay:10.37,2013-09-25 19:50:00,
2013-09-25 12:55:00,66.6,40.1,29.96,South,180,2.3,2.3,38,0.00,CLR,,0.00,WeatherDisplay:10.37,2013-09-25 19:55:00,
2013-09-25 13:00:00,65.5,40.5,29.96,SW,225,3.5,3.5,40,0.00,CLR,,0.00,WeatherDisplay:10.37,2013-09-25 20:00:00,
2013-09-25 13:05:00,64.0,39.8,29.95,South,180,5.8,5.8,41,0.00,CLR,,0.00,WeatherDisplay:10.37,2013-09-25 20:05:00,
2013-09-25 13:10:00,64.8,41.7,29.96,SW,225,8.1,8.1,43,0.00,CLR,,0.00,WeatherDisplay:10.37,2013-09-25 20:10:00,
2013-09-25 13:15:00,66.0,39.7,29.96,NW,315,8.1,8.1,38,0.00,CLR,,0.00,WeatherDisplay:10.37,2013-09-25 20:15:00,
2013-09-25 13:20:00,65.7,41.3,29.96,West,270,1.2,2.2,41,0.00,CLR,,0.00,WeatherDisplay:10.37,2013-09-25 20:20:00,
2013-09-25 13:25:00,64.9,40.0,29.96,South,180,8.1,8.1,40,0.00,CLR,,0.00,WeatherDisplay:10.37,2013-09-25 20:25:00,
2013-09-25 13:31:00,65.1,39.5,29.95,SW,225,4.6,4.6,39,0.00,CLR,,0.00,WeatherDisplay:10.37,2013-09-25 20:31:00,
2013-09-25 13:36:00,66.0,40.3,29.96,NW,315,3.5,3.5,39,0.00,CLR,,0.00,WeatherDisplay:10.37,2013-09-25 20:36:00,
2013-09-25 13:41:00,65.5,37.8,29.96,NW,315,6.9,6.9,36,0.00,CLR,,0.00,WeatherDisplay:10.37,2013-09-25 20:41:00,
2013-09-25 13:46:00,66.2,38.4,29.96,NW,315,5.8,5.8,36,0.00,CLR,,0.00,WeatherDisplay:10.37,2013-09-25 20:46:00,
2013-09-25 13:51:00,66.2,38.4,29.96,NW,315,6.9,6.9,36,0.00,CLR,,0.00,WeatherDisplay:10.37,2013-09-25 20:51:00,
2013-09-25 13:56:00,66.9,39.1,29.96,NW,315,4.6,4.6,36,0.00,CLR,,0.00,WeatherDisplay:10.37,2013-09-25 20:56:00,
2013-09-25 14:01:00,66.9,34.5,29.96,West,270,8.1,8.1,30,0.00,CLR,,0.00,WeatherDisplay:10.37,2013-09-25 21:01:00,
2013-09-25 14:06:00,66.7,37.5,29.96,West,270,4.6,4.6,34,0.00,CLR,,0.00,WeatherDisplay:10.37,2013-09-25 21:06:00,
2013-09-25 15:18:00,64.9,36.6,29.96,West,270,5.8,5.8,35,0.00,CLR,,0.00,WeatherDisplay:10.37,2013-09-25 22:18:00,
2013-09-25 15:23:00,63.9,38.4,29.96,NW,315,4.6,0.0,39,0.00,CLR,,0.00,WeatherDisplay:10.37,2013-09-25 22:23:00,
2013-09-25 15:28:00,63.3,36.6,29.96,West,270,8.1,8.1,37,0.00,CLR,,0.00,WeatherDisplay:10.37,2013-09-25 22:28:00,
2013-09-25 15:33:00,62.4,37.8,29.97,NE,45,12.7,12.7,40,0.00,CLR,,0.00,WeatherDisplay:10.37,2013-09-25 22:33:00,
2013-09-25 15:38:00,61.5,38.2,29.97,NW,315,10.4,10.4,42,0.00,CLR,,0.00,WeatherDisplay:10.37,2013-09-25 22:38:00,
2013-09-25 15:43:00,61.0,37.7,29.97,West,270,11.5,11.5,42,0.00,CLR,,0.00,WeatherDisplay:10.37,2013-09-25 22:43:00,
2013-09-25 15:48:00,60.8,36.3,29.97,West,270,5.8,5.8,40,0.00,CLR,,0.00,WeatherDisplay:10.37,2013-09-25 22:48:00,
2013-09-25 15:53:00,61.0,35.2,29.97,NW,315,10.4,10.4,38,0.00,CLR,,0.00,WeatherDisplay:10.37,2013-09-25 22:53:00,
2013-09-25 15:58:00,60.4,34.7,29.97,NW,315,15.0,15.0,38,0.00,CLR,,0.00,WeatherDisplay:10.37,2013-09-25 22:58:00,
2013-09-25 16:04:00,60.1,34.4,29.97,WNW,292,9.2,9.2,38,0.00,CLR,,0.00,WeatherDisplay:10.37,2013-09-25 23:04:00,
2013-09-25 16:09:00,60.1,35.0,29.97,West,270,9.2,9.2,39,0.00,CLR,,0.00,WeatherDisplay:10.37,2013-09-25 23:09:00,
2013-09-25 16:14:00,60.1,35.0,29.97,West,270,8.1,8.1,39,0.00,CLR,,0.00,WeatherDisplay:10.37,2013-09-25 23:14:00,
2013-09-25 16:19:00,59.7,35.3,29.97,NW,315,10.4,10.4,40,0.00,CLR,,0.00,WeatherDisplay:10.37,2013-09-25 23:19:00,
2013-09-25 16:24:00,59.5,35.2,29.97,North,0,9.2,0.0,40,0.00,CLR,,0.00,WeatherDisplay:10.37,2013-09-25 23:24:00,
2013-09-25 16:29:00,59.7,36.6,29.98,NE,45,6.9,6.9,42,0.00,CLR,,0.00,WeatherDisplay:10.37,2013-09-25 23:29:00,
2013-09-25 16:34:00,59.9,37.3,29.98,NW,315,4.6,4.6,43,0.00,CLR,,0.00,WeatherDisplay:10.37,2013-09-25 23:34:00,
2013-09-25 16:39:00,59.9,36.7,29.98,West,270,11.5,11.5,42,0.00,CLR,,0.00,WeatherDisplay:10.37,2013-09-25 23:39:00,
2013-09-25 16:44:00,59.9,36.7,29.98,West,270,6.9,6.9,42,0.00,CLR,,0.00,WeatherDisplay:10.37,2013-09-25 23:44:00,
2013-09-25 16:49:00,59.7,35.3,29.98,NE,45,6.9,6.9,40,0.00,CLR,,0.00,WeatherDisplay:10.37,2013-09-25 23:49:00,
2013-09-25 16:54:00,59.7,35.3,29.98,West,270,3.5,3.5,40,0.00,CLR,,0.00,WeatherDisplay:10.37,2013-09-25 23:54:00,
2013-09-25 16:59:00,59.5,33.9,29.98,NE,45,8.1,8.1,38,0.00,CLR,,0.00,WeatherDisplay:10.37,2013-09-25 23:59:00,
2013-09-25 17:04:00,59.5,35.2,29.99,West,270,9.2,9.2,40,0.00,CLR,,0.00,WeatherDisplay:10.37,2013-09-26 00:04:00,
2013-09-25 17:09:00,59.4,35.0,29.98,NW,315,9.2,9.2,40,0.00,CLR,,0.00,WeatherDisplay:10.37,2013-09-26 00:09:00,
2013-09-25 17:14:00,59.4,35.6,29.98,West,270,6.9,6.9,41,0.00,CLR,,0.00,WeatherDisplay:10.37,2013-09-26 00:14:00,
2013-09-25 17:19:00,59.5,35.8,29.99,NE,45,3.5,3.5,41,0.00,CLR,,0.00,WeatherDisplay:10.37,2013-09-26 00:19:00,
2013-09-25 17:24:00,59.5,35.8,29.98,NE,45,4.6,4.6,41,0.00,CLR,,0.00,WeatherDisplay:10.37,2013-09-26 00:24:00,
2013-09-25 17:29:00,59.4,36.2,29.99,NE,45,2.3,0.0,42,0.00,CLR,,0.00,WeatherDisplay:10.37,2013-09-26 00:29:00,
2013-09-25 17:34:00,59.5,36.4,29.99,NE,45,3.5,3.5,42,0.00,CLR,,0.00,WeatherDisplay:10.37,2013-09-26 00:34:00,
2013-09-25 17:39:00,59.4,35.6,29.99,South,180,3.5,3.5,41,0.00,CLR,,0.00,WeatherDisplay:10.37,2013-09-26 00:39:00,
2013-09-25 17:44:00,59.5,35.2,29.99,NE,45,6.9,6.9,40,0.00,CLR,,0.00,WeatherDisplay:10.37,2013-09-26 00:44:00,
2013-09-25 17:49:00,59.9,36.1,29.99,North,0,5.8,5.8,41,0.00,CLR,,0.00,WeatherDisplay:10.37,2013-09-26 00:49:00,
2013-09-25 17:54:00,59.9,36.1,29.99,NE,45,2.3,2.3,41,0.00,CLR,,0.00,WeatherDisplay:10.37,2013-09-26 00:54:00,
2013-09-25 17:59:00,59.5,35.8,29.99,North,0,4.6,4.6,41,0.00,CLR,,0.00,WeatherDisplay:10.37,2013-09-26 00:59:00,
2013-09-25 18:04:00,59.2,36.1,29.99,NW,315,3.5,0.0,42,0.00,CLR,,0.00,WeatherDisplay:10.37,2013-09-26 01:04:00,
2013-09-25 18:09:00,58.8,36.9,29.99,NW,315,2.3,0.0,44,0.00,CLR,,0.00,WeatherDisplay:10.37,2013-09-26 01:09:00,
2013-09-25 18:14:00,58.5,36.0,29.99,West,270,2.3,0.0,43,0.00,CLR,,0.00,WeatherDisplay:10.37,2013-09-26 01:14:00,
2013-09-25 18:19:00,58.1,36.3,29.99,North,0,1.2,0.0,44,0.00,CLR,,0.00,WeatherDisplay:10.37,2013-09-26 01:19:00,
2013-09-25 18:24:00,57.6,36.4,29.99,NW,315,2.3,0.0,45,0.00,CLR,,0.00,WeatherDisplay:10.37,2013-09-26 01:24:00,
2013-09-25 18:29:00,56.8,36.3,29.99,West,270,0.0,0.0,46,0.00,CLR,,0.00,WeatherDisplay:10.37,2013-09-26 01:29:00,
2013-09-25 18:34:00,56.3,36.8,29.99,West,270,0.7,0.0,48,0.00,CLR,,0.00,WeatherDisplay:10.37,2013-09-26 01:34:00,
2013-09-25 18:39:00,55.8,36.9,29.99,SW,225,0.0,0.0,49,0.00,CLR,,0.00,WeatherDisplay:10.37,2013-09-26 01:39:00,
2013-09-25 18:44:00,55.0,37.2,29.99,SW,225,1.2,0.0,51,0.00,CLR,,0.00,WeatherDisplay:10.37,2013-09-26 01:44:00,
2013-09-25 18:49:00,54.1,37.8,29.99,SW,225,1.2,1.2,54,0.00,CLR,,0.00,WeatherDisplay:10.37,2013-09-26 01:49:00,
2013-09-25 18:54:00,53.2,42.2,29.99,SW,225,2.3,2.3,66,0.00,CLR,,0.00,WeatherDisplay:10.37,2013-09-26 01:54:00,
2013-09-25 18:59:00,52.5,42.3,29.99,SW,225,1.2,1.2,68,0.00,CLR,,0.00,WeatherDisplay:10.37,2013-09-26 01:59:00,
2013-09-25 19:04:00,52.0,38.5,29.99,SW,225,3.5,3.5,60,0.00,CLR,,0.00,WeatherDisplay:10.37,2013-09-26 02:04:00,
2013-09-25 19:09:00,51.8,39.2,29.99,SW,225,1.2,0.0,62,0.00,CLR,,0.00,WeatherDisplay:10.37,2013-09-26 02:09:00,
2013-09-25 19:14:00,51.6,39.4,29.99,SW,225,1.2,0.0,63,0.00,CLR,,0.00,WeatherDisplay:10.37,2013-09-26 02:14:00,
2013-09-25 19:19:00,51.3,41.4,30.00,SW,225,1.6,0.0,69,0.00,CLR,,0.00,WeatherDisplay:10.37,2013-09-26 02:19:00,
2013-09-25 19:24:00,50.9,39.5,30.00,SW,225,2.3,2.3,65,0.00,CLR,,0.00,WeatherDisplay:10.37,2013-09-26 02:24:00,
2013-09-25 19:29:00,50.9,39.1,30.00,SW,225,1.2,0.0,64,0.00,CLR,,0.00,WeatherDisplay:10.37,2013-09-26 02:29:00,
2013-09-25 19:35:00,50.7,39.4,30.00,SW,225,1.2,1.2,65,0.00,CLR,,0.00,WeatherDisplay:10.37,2013-09-26 02:35:00,
2013-09-25 19:40:00,50.4,39.0,30.00,SW,225,2.3,2.3,65,0.00,CLR,,0.00,WeatherDisplay:10.37,2013-09-26 02:40:00,
2013-09-25 19:45:00,50.0,39.1,30.00,SW,225,1.2,0.0,66,0.00,CLR,,0.00,WeatherDisplay:10.37,2013-09-26 02:45:00,
2013-09-25 19:50:00,50.0,39.1,30.00,SW,225,2.3,2.3,66,0.00,CLR,,0.00,WeatherDisplay:10.37,2013-09-26 02:50:00,
2013-09-25 19:56:00,49.8,39.7,30.00,SW,225,1.2,0.0,68,0.00,CLR,,0.00,WeatherDisplay:10.37,2013-09-26 02:56:00,
2013-09-25 20:01:00,49.6,39.5,30.00,SW,225,0.0,0.0,68,0.00,CLR,,0.00,WeatherDisplay:10.37,2013-09-26 03:01:00,
2013-09-25 20:06:00,49.3,39.2,30.00,SW,225,0.0,0.0,68,0.00,CLR,,0.00,WeatherDisplay:10.37,2013-09-26 03:06:00,
2013-09-25 20:11:00,48.9,38.8,30.01,South,180,1.2,0.0,68,0.00,CLR,,0.00,WeatherDisplay:10.37,2013-09-26 03:11:00,
2013-09-25 20:16:00,48.7,39.0,30.01,South,180,0.0,0.0,69,0.00,CLR,,0.00,WeatherDisplay:10.37,2013-09-26 03:16:00,
2013-09-25 20:21:00,48.7,39.0,30.01,SW,225,0.0,0.0,69,0.00,CLR,,0.00,WeatherDisplay:10.37,2013-09-26 03:21:00,
2013-09-25 20:26:00,48.4,39.0,30.01,SW,225,0.0,0.0,70,0.00,CLR,,0.00,WeatherDisplay:10.37,2013-09-26 03:26:00,
2013-09-25 20:31:00,48.0,38.7,30.01,SW,225,1.2,0.0,70,0.00,CLR,,0.00,WeatherDisplay:10.37,2013-09-26 03:31:00,
2013-09-25 20:36:00,47.7,38.7,30.01,South,180,0.0,0.0,71,0.00,CLR,,0.00,WeatherDisplay:10.37,2013-09-26 03:36:00,
2013-09-25 20:41:00,47.5,38.5,30.01,SW,225,1.2,0.0,71,0.00,CLR,,0.00,WeatherDisplay:10.37,2013-09-26 03:41:00,
2013-09-25 20:46:00,47.3,38.4,30.01,SW,225,0.0,0.0,71,0.00,CLR,,0.00,WeatherDisplay:10.37,2013-09-26 03:46:00,
2013-09-25 20:51:00,47.1,38.2,30.02,SW,225,0.0,0.0,71,0.00,CLR,,0.00,WeatherDisplay:10.37,2013-09-26 03:51:00,
2013-09-25 20:56:00,46.9,38.0,30.02,SW,225,0.0,0.0,71,0.00,CLR,,0.00,WeatherDisplay:10.37,2013-09-26 03:56:00,
2013-09-25 21:01:00,46.8,38.2,30.02,SW,225,0.0,0.0,72,0.00,CLR,,0.00,WeatherDisplay:10.37,2013-09-26 04:01:00,
2013-09-25 21:03:00,46.8,38.2,30.02,SW,225,0.0,0.0,72,0.00,CLR,,0.00,WeatherDisplay:10.37,2013-09-26 04:03:00,
2013-09-25 21:08:00,46.6,38.0,30.02,SW,225,0.0,0.0,72,0.00,CLR,,0.00,WeatherDisplay:10.37,2013-09-26 04:08:00,
2013-09-25 21:13:00,46.4,37.9,30.02,SW,225,0.0,0.0,72,0.00,CLR,,0.00,WeatherDisplay:10.37,2013-09-26 04:13:00,
2013-09-25 21:18:00,46.0,37.5,30.02,SW,225,0.0,0.0,72,0.00,CLR,,0.00,WeatherDisplay:10.37,2013-09-26 04:18:00,
2013-09-25 21:23:00,45.9,37.3,30.02,West,270,1.2,0.0,72,0.00,CLR,,0.00,WeatherDisplay:10.37,2013-09-26 04:23:00,
2013-09-25 21:28:00,46.0,37.9,30.02,SW,225,1.2,0.0,73,0.00,CLR,,0.00,WeatherDisplay:10.37,2013-09-26 04:28:00,
2013-09-25 21:33:00,45.9,37.7,30.02,SW,225,1.2,0.0,73,0.00,CLR,,0.00,WeatherDisplay:10.37,2013-09-26 04:33:00,
2013-09-25 21:38:00,45.5,37.0,30.02,SW,225,0.0,0.0,72,0.00,CLR,,0.00,WeatherDisplay:10.37,2013-09-26 04:38:00,
2013-09-25 21:43:00,45.5,36.6,30.03,SW,225,0.0,0.0,71,0.00,CLR,,0.00,WeatherDisplay:10.37,2013-09-26 04:43:00,
2013-09-25 21:48:00,45.3,36.5,30.02,SW,225,0.0,0.0,71,0.00,CLR,,0.00,WeatherDisplay:10.37,2013-09-26 04:48:00,
2013-09-25 21:53:00,45.0,36.8,30.02,SW,225,0.0,0.0,73,0.00,CLR,,0.00,WeatherDisplay:10.37,2013-09-26 04:53:00,
2013-09-25 21:58:00,44.8,36.3,30.03,SW,225,1.2,0.0,72,0.00,CLR,,0.00,WeatherDisplay:10.37,2013-09-26 04:58:00,
2013-09-25 22:03:00,44.8,36.7,30.03,South,180,1.2,0.0,73,0.00,CLR,,0.00,WeatherDisplay:10.37,2013-09-26 05:03:00,
2013-09-25 22:08:00,44.6,36.5,30.03,South,180,1.2,0.0,73,0.00,CLR,,0.00,WeatherDisplay:10.37,2013-09-26 05:08:00,
2013-09-25 22:13:00,44.4,36.3,30.02,West,270,1.2,0.0,73,0.00,CLR,,0.00,WeatherDisplay:10.37,2013-09-26 05:13:00,
2013-09-25 22:18:00,44.4,36.3,30.03,SW,225,0.0,0.0,73,0.00,CLR,,0.00,WeatherDisplay:10.37,2013-09-26 05:18:00,
2013-09-25 22:23:00,44.2,36.1,30.03,SW,225,0.0,0.0,73,0.00,CLR,,0.00,WeatherDisplay:10.37,2013-09-26 05:23:00,
2013-09-25 22:28:00,44.4,36.6,30.03,SW,225,0.0,0.0,74,0.00,CLR,,0.00,WeatherDisplay:10.37,2013-09-26 05:28:00,
2013-09-25 22:33:00,44.2,36.1,30.03,SW,225,0.0,0.0,73,0.00,CLR,,0.00,WeatherDisplay:10.37,2013-09-26 05:33:00,
2013-09-25 22:38:00,44.4,36.3,30.03,SW,225,0.0,0.0,73,0.00,CLR,,0.00,WeatherDisplay:10.37,2013-09-26 05:38:00,
2013-09-25 22:43:00,44.2,36.5,30.03,SW,225,1.2,0.0,74,0.00,CLR,,0.00,WeatherDisplay:10.37,2013-09-26 05:43:00,
2013-09-25 22:48:00,44.1,36.3,30.03,SW,225,1.2,0.0,74,0.00,CLR,,0.00,WeatherDisplay:10.37,2013-09-26 05:48:00,
2013-09-25 22:53:00,44.2,36.5,30.04,SW,225,0.0,0.0,74,0.00,CLR,,0.00,WeatherDisplay:10.37,2013-09-26 05:53:00,
2013-09-25 22:58:00,44.2,36.5,30.04,West,270,0.0,0.0,74,0.00,CLR,,0.00,WeatherDisplay:10.37,2013-09-26 05:58:00,
2013-09-25 23:03:00,44.4,36.6,30.04,SW,225,1.2,0.0,74,0.00,CLR,,0.00,WeatherDisplay:10.37,2013-09-26 06:03:00,
2013-09-25 23:08:00,44.2,36.1,30.04,South,180,0.0,0.0,73,0.00,CLR,,0.00,WeatherDisplay:10.37,2013-09-26 06:08:00,
2013-09-25 23:13:00,44.4,36.6,30.04,South,180,0.0,0.0,74,0.00,CLR,,0.00,WeatherDisplay:10.37,2013-09-26 06:13:00,
2013-09-25 23:18:00,44.2,36.5,30.04,South,180,0.0,0.0,74,0.00,CLR,,0.00,WeatherDisplay:10.37,2013-09-26 06:18:00,
2013-09-25 23:23:00,44.1,36.3,30.04,South,180,0.0,0.0,74,0.00,CLR,,0.00,WeatherDisplay:10.37,2013-09-26 06:23:00,
2013-09-25 23:28:00,44.2,36.1,30.04,South,180,0.0,0.0,73,0.00,CLR,,0.00,WeatherDisplay:10.37,2013-09-26 06:28:00,
2013-09-25 23:33:00,44.1,36.0,30.04,South,180,1.2,0.0,73,0.00,CLR,,0.00,WeatherDisplay:10.37,2013-09-26 06:33:00,
2013-09-25 23:38:00,44.1,36.0,30.04,South,180,0.0,0.0,73,0.00,CLR,,0.00,WeatherDisplay:10.37,2013-09-26 06:38:00,
2013-09-25 23:43:00,44.2,35.8,30.04,South,180,1.2,0.0,72,0.00,CLR,,0.00,WeatherDisplay:10.37,2013-09-26 06:43:00,
2013-09-25 23:48:00,44.1,35.3,30.04,West,270,0.0,0.0,71,0.00,CLR,,0.00,WeatherDisplay:10.37,2013-09-26 06:48:00,
2013-09-25 23:53:00,44.1,35.3,30.05,West,270,0.0,0.0,71,0.00,CLR,,0.00,WeatherDisplay:10.37,2013-09-26 06:53:00,
2013-09-25 23:58:00,44.1,35.3,30.05,West,270,0.0,0.0,71,0.00,CLR,,0.00,WeatherDisplay:10.37,2013-09-26 06:58:00,